Погода в Сураже

Польша     52°56′57″N   22°57′26″E
темп.,
°C
ветер,
м/с
пор.,
м/с
влажн.,
%
обл.,
%
осадки,
мм/ч
давл.,
гПа
погр.,
м
17 октября, вс
вс1723:00+9зюз4859100 0.0 1019582
02:00+9з5852100 0.0 1019620
05:00+8зюз51056100 0.0 1018493
08:00+9зюз51053100 0.0 1018538
11:00+10зюз6952100 0.0 1019855
14:00+10зюз6852100 0.0 10181092
17:00+9зюз5957100 0.0 10181042
20:00+6зюз4968100 0.0 1019291
18 октября, пн
пн1823:00+6зюз41075100 0.0 1019298
02:00+6юз41078100 0.0 1018259
05:00+7з51076100 0.0 1018416
08:00+7з4985100 0.0 1019370
11:00+10сз567082 0.1 1020944
14:00+10сз4667100 0.4 1020687
17:00+9сз3771100 0.3 1021249
20:00+7сз367961 0.4 1022104
19 октября, вт
вт1923:00+4ссз367575 0.0 1025104
02:00+3ссз3381100 0.0 102649
05:00+2сз228344 0.0 102711
08:00+3юз227985 0.0 102818
11:00+8ююз3456100 0.0 1028495
14:00+10ююз4439100 0.0 1026818
17:00+8ю3649100 0.0 1024179
20:00+8ююв41062100 0.0 1023322
20 октября, ср
ср2023:00+7ююв41088100 0.0 1022254
02:00+8ю51186100 0.0 1019275
05:00+9ююз41079100 0.0 1017271
08:00+10ююз61372100 0.0 1015469
11:00+9ююз81593100 3.1 1014517
14:00+13юз71480100 3.5 1012595
17:00+13юз61484100 0.0 1011452
20:00+12ююз71685100 0.0 1010418
21 октября, чт
чт2123:00+12ююз7167751 0.0 1008433
02:00+12ююз7167760 0.0 1006452
05:00+12ююз71574100 0.0 1005396
08:00+12ююз81772100 0.1 1004506
11:00+12ююз81880100 0.7 1003534
14:00+17юз101762100 0.7 10021731
17:00+15зюз91555100 0.1 10031061
20:00+13зюз51161100 0.1 1004373